Regional Weather Roundup
Issued by NWS

Home | Current Version | Previous Version | Text Only | Print | Product List | Glossary On
Versions: 1 2 3 4 5 6 7 8 9 10 11 12 13 14 15 16 17 18 19 20 21 22 23 24 25 26 27 28 29 30 31 32 33 34 35 36 37 38 39 40 41 42 43 44 45 46 47 48 49 50
000
ASUS42 KTBW 241510
RWRFL
FLORIDA REGIONAL WEATHER ROUNDUP
NATIONAL WEATHER SERVICE TAMPA BAY RUSKIN FL
1100 AM EDT THU JUL 24 2014

NOTE: "FAIR" INDICATES FEW OR NO CLOUDS BELOW 12,000 FEET WITH NO
SIGNIFICANT WEATHER AND/OR OBSTRUCTIONS TO VISIBILITY.


FLZ001>010-012>015-112-114-115-241600-
PANHANDLE FLORIDA

CITY           SKY/WX    TMP DP  RH WIND       PRES   REMARKS
PENSACOLA      MOSUNNY   81  70  69 SW3       30.03S
PENSACOLA NAS  PTSUNNY   83  73  72 CALM      30.02S
MILTON NAS     PTSUNNY   83  72  69 W3        30.04S
CRESTVIEW      MOSUNNY   84  72  67 W7        30.05S
DUKE FIELD     PTSUNNY   83  77  82 W5        30.04S
VALPARAISO     LGT RAIN  84  73  70 W12       30.03R
MARY ESTHER    MOSUNNY   82  72  69 N5        30.03R
TRI COUNTY     PTSUNNY   85  74  69 VRB3      30.04F
PANAMA CITY    PTSUNNY   86  74  67 SW8G15    30.02F
TYNDALL AFB    MOSUNNY   85  77  75 SW8       30.05R HX  95
APALACHICOLA   MOSUNNY   87  75  67 VRB6      30.05R HX  96

STATION/POSITION SKY/WX   TEMP    WIND        PRES    WAVE   SWELL
                          AIR SEA DIR/SP/G            HT/PER HT/PER
                          (F)     (DEG/KT/KT) (MB)    (FT/S) (FT/S)
30.1N   87.6W              81 82  160/  4/  4 1017.0R   1/ 9
29.2N   88.2W              83 84  250/  8/ 10 1017.1R
28.8N   86.0W              83 84  220/  6/  8 1017.3    1/ 3
PANAMA CITY BEAC           83 84  210/  6/  7 1017.0S
CAPE SAN BLAS    NOT AVBL
TOWER C                    82     250/  3/  4 1017.5R
28.5N   84.5W              85 85  210/  2/  2 1017.9R   1/ 8

$$
FLZ011-016>038-118-127-128-134-139-239-241600-
NORTH FLORIDA

CITY           SKY/WX    TMP DP  RH WIND       PRES   REMARKS
MARIANNA       PTSUNNY   83  76  79 NW7       30.04S
TALLAHASSEE    PTSUNNY   85  75  70 W7        30.04S
PERRY          SUNNY     84  73  70 W5        30.05F
CROSS CITY       N/A     87  75  67 SW5       30.05S HX  96
GAINESVILLE    MOSUNNY   85  73  67 W8        30.06S
MAYPORT NAS    MOSUNNY   85  73  67 SW7       30.04S
JACKSONVILLE   PTSUNNY   86  74  67 W12       30.03S
JAX NAS        MOSUNNY   88  72  58 SW7       30.05S
JAX CRAIG      MOSUNNY   85  72  65 W10       30.04S
JAX CECIL      MOSUNNY   86  73  66 W12       30.04F
FERNANDINA BEA FAIR      86  72  62 W8        30.02S
ST AUGUSTINE   SUNNY     89  73  59 NW7       30.05S HX  97

STATION/POSITION SKY/WX   TEMP    WIND        PRES    WAVE   SWELL
                          AIR SEA DIR/SP/G            HT/PER HT/PER
                          (F)     (DEG/KT/KT) (MB)    (FT/S) (FT/S)
SHELL POINT                83     270/  4/  5   N/A
KEATON BEACH               84     270/  4/  5 1017.9R
CEDAR KEY                  85     300/  4/  6 1018.1F
FERNANDINA                 83 85  260/  5/  8 1016.5R
30.7N   81.3W                 84                N/A     2/ 7
MAYPORT                    83 85  260/  8/ 12   N/A
31.4N   80.9W              82 84  260/ 12/ 14 1016.5R   2/ 5   2/ 8
ST AUGUSTINE               85     280/  5/  7 1018.4R

$$
FLZ040-043>046-052-053-057-058-063-144-241600-
INTERIOR CENTRAL FLORIDA

CITY           SKY/WX    TMP DP  RH WIND       PRES   REMARKS
OCALA          MOSUNNY   84  70  61 NW7       30.07S
LEESBURG       PTSUNNY   87  75  67 VRB3      30.07S HX  96
SANFORD        PTSUNNY   85  75  72 N3        30.06S
ORLANDO EXEC   PTSUNNY   85  76  74 NW3       30.07R
ORLANDO INTL   MOSUNNY   87  75  67 CALM      30.06S HX  96
KISSIMMEE      MOSUNNY   86  75  70 CALM      30.07S HX  95
WINTER HAVEN   CLOUDY    85  74  69 CALM      30.08S
LAKELAND       PTSUNNY   88  72  58 CALM      30.07S
BARTOW         PTSUNNY   84  73  70 E3        30.07F
OKEECHOBEE     MOSUNNY   82  77  83 MISG      30.07R

$$
FLZ041-047-054-059-064-141-147-241600-
EAST CENTRAL FLORIDA

CITY           SKY/WX    TMP DP  RH WIND       PRES   REMARKS
ORMOND BEACH   MOSUNNY   84  73  70 VRB3      30.06S
DAYTONA BEACH  MOSUNNY   86  75  69 VRB3      30.06S HX  95
DELAND         MOSUNNY   86  73  66 CALM      30.07S
NEW SMYRNA BEA MOSUNNY   86  75  70 NE7       30.07R HX  95
JFK SPACE CTR  PTSUNNY   85  81  85 NW3       30.06R HX 101
TITUSVILLE     MOSUNNY   84  75  74 W8        30.07R
CAPE CANAVERAL SUNNY     86  76  70 W8        30.06R HX  96
PATRICK AFB    SUNNY     87  76  68 W8        30.06S HX  97
MELBOURNE      SUNNY     87  74  64 SW8       30.06S HX  95
VERO BEACH     PTSUNNY   87  77  72 SW8       30.06S HX  99
FT PIERCE      MOSUNNY   88  75  65 W7        30.06S HX  97
STUART         PTSUNNY   86  73  66 S5        30.08R

STATION/POSITION SKY/WX   TEMP    WIND        PRES    WAVE   SWELL
                          AIR SEA DIR/SP/G            HT/PER HT/PER
                          (F)     (DEG/KT/KT) (MB)    (FT/S) (FT/S)
28.5N   80.2W              81 83  220/ 12/ 14 1017.9F   3/ 4   2/ 8
28.9N   78.5W              83 84  220/ 10/ 12 1018.7R   3/ 8   2/ 8
TRIDENT PIER               86 87  210/  8/ 10 1017.4R
28.4N   80.5W                 85                N/A     2/ 7
27.6N   80.2W                 84                N/A     1/ 9

$$
FLZ050-056-061-142-242-148-248-149-249-151-251-155-255-
160-260-241600-
WEST CENTRAL FLORIDA

CITY           SKY/WX    TMP DP  RH WIND       PRES   REMARKS
CRYSTAL RIVER  FAIR      88  72  58 CALM      30.06S
INVERNESS      PTSUNNY   86  72  62 N3        30.07S
BROOKSVILLE    HVY RAIN  82  76  81 E3        30.07S
ZEPHYRHILLS    FAIR      88  73  62 SE3       30.07S HX  96
CLEARWATER     MOSUNNY   85  77  77 E6        30.05S THUNDER HX  95
TAMPA INTL     LGT RAIN  82  76  81 SE6       30.06S
TAMPA EXEC     MOSUNNY   90  72  55 CALM      30.06S HX  96
PLANT CITY     PTSUNNY   90  73  58 N3        30.08S HX  98
MACDILL AFB    PTSUNNY   86  78  77 VRB6      30.07R HX  98
ST PETERSBURG  PTSUNNY   85  76  74 SW8       30.05R THUNDER
SARASOTA       MOSUNNY   85  75  72 W5        30.05R
VENICE         FAIR      88  75  66 SW8       30.07R HX  97

STATION/POSITION SKY/WX   TEMP    WIND        PRES    WAVE   SWELL
                          AIR SEA DIR/SP/G            HT/PER HT/PER
                          (F)     (DEG/KT/KT) (MB)    (FT/S) (FT/S)
CEDAR KEY                  85     300/  4/  6 1018.1F
28.5N   84.5W              85 85  210/  2/  2 1017.9R   1/ 8
27.3N   84.3W                 86                N/A     1/ 8
CLEARWATER BEACH           86 89  310/  6/  7 1017.7R
MIDDLE TAMPA BAY           80     170/  4/  7 1018.3R
VENICE                     85 88  200/  7/  9 1017.6R

$$
FLZ066-069-070-075>078-162-262-165-265-241600-
SOUTHWEST FLORIDA AND KEYS

CITY           SKY/WX    TMP DP  RH WIND       PRES   REMARKS
PUNTA GORDA    CLOUDY    89  76  65 SE5       30.08R HX 100
FT MYERS         N/A    N/A N/A N/A MISG      30.06R
SOUTHWEST INTL SUNNY     86  73  65 S7        30.06S
NAPLES         HVY RAIN  80  76  87 S18G29    30.08R VSB 3/4
MARATHON       MOSUNNY   90  75  61 VRB7      30.06R HX 100
KEY WEST NAS   MOSUNNY   90  76  63 SE13G22   30.06R HX 101
KEY WEST INTL  MOSUNNY   89  76  65 SE10      30.06R HX 100

STATION/POSITION SKY/WX   TEMP    WIND        PRES    WAVE   SWELL
                          AIR SEA DIR/SP/G            HT/PER HT/PER
                          (F)     (DEG/KT/KT) (MB)    (FT/S) (FT/S)
VENICE                     85 88  200/  7/  9 1017.6R
NAPLES                     85 92  200/  3/  5 1018.3S
DRY TORTUGAS               85     170/  7/  9 1018.1R
NW FL BAY                  86     170/  9/ 11 1017.5R
SAND KEY                   84     140/ 12/ 16 1017.9R
SOMBRERO KEY               84     120/  7/  8 1018.6R
LONG KEY                   84 88  150/  9/ 11 1018.3R
MOLASSES REEF              84 86  150/ 11/ 13 1018.0R

$$
FLZ067-068-071>074-168-172>174-241600-
SOUTHEAST FLORIDA

CITY           SKY/WX    TMP DP  RH WIND       PRES   REMARKS
W PALM BEACH   PTSUNNY   87  76  69 SE8       30.06R HX  97
FT LAUDER-EXEC CLOUDY    88  78  72 SE10      30.06S HX 101
FT LAUDERDALE  MOSUNNY   89  74  60 S14       30.06R HX  98
POMPANO BEACH  SUNNY     88  76  67 SE9       30.07R HX  99
PEMBROKE PINES MOSUNNY   89  73  59 E10       30.07S HX  97
OPA LOCKA        N/A     86  74  67 SW9       30.06S
MIAMI          LGT RAIN  83  77  82 W3        30.07S
WEST KENDALL   MOSUNNY   88  75  65 SE7       30.06S HX  97
HOMESTEAD      MOSUNNY   88  75  65 SE8       30.06S HX  98

STATION/POSITION SKY/WX   TEMP    WIND        PRES    WAVE   SWELL
                          AIR SEA DIR/SP/G            HT/PER HT/PER
                          (F)     (DEG/KT/KT) (MB)    (FT/S) (FT/S)
PORT EVERGLADES            85     140/  4/  8 1018.2
VIRGINIA KEY               85 87  130/  9/ 11   N/A
LAKE WORTH                 84 83              1017.9S
FOWEY ROCKS                85 86  140/ 11/ 12 1018.3R
SETTLEMENT POINT           84     180/  9/ 10 1019.1R

$$




USA.gov is the U.S. government's official web portal to all federal, state and local government web resources and services.